User: anonymous   Login
Location: Brno
(49.2000°N, 16.6330°E)
Time: 21:41:29
(UTC+01:00)
Language:

Iridium 2 - Orbit

View from above orbital plane
View from above orbital plane
View from above satellite
View from above satellite

Ground track
Ground track

The orbit data is extracted from the following two-line orbital elements,

1 25527U 98066A   17051.51603424  .00001263  00000-0  63446-4 0  9998
2 25527  85.5287 101.1185 0010553 147.1491 213.0406 15.16182218   197
Epoch (UTC): 20 February 2017 12:23:05
Eccentricity: 0.0010553
inclination: 85.5287°
perigee height: 510 km
apogee height: 524 km
right ascension of ascending node: 101.1185°
argument of perigee: 147.1491°
revolutions per day: 15.16182218
mean anomaly at epoch: 213.0406°
orbit number at epoch: 19

The dashed part of the orbit path shows where the satellite is in the earth's shadow,  

DLR